Location: Sarroca
(41.4590°N, 0.5613°E)
Time: 01:18:41
(UTC+00:00)

Daily predictions for brighter satellites

Satellite Brightness Start Highest point End
(mag) Time Altitude Azimuth Time Altitude Azimuth Time Altitude Azimuth
Cosmos 2278 Rocket 4.5 03:36:40 18° ESE 03:36:40 18° ESE 03:38:16 10° ESE
Cosmos 2237 Rocket 4.2 03:43:06 24° NE 03:43:06 24° NE 03:45:34 10° NE
Lacrosse 4 Rocket 4.2 04:04:26 16° ENE 04:04:26 16° ENE 04:05:33 10° NE
Gbstr 26 Del rocket 4.3 04:13:50 80° ENE 04:13:50 80° ENE 04:21:24 10° NE
Cosmos 1464 Rocket 4.3 04:13:46 60° E 04:13:46 60° E 04:19:36 10° NNE
FALCON 9 R/B 3.8 04:24:54 20° S 04:24:54 20° S 04:26:31 10° SSE
Atlas Centaur 2 3.7 04:26:50 34° S 04:26:58 34° S 04:33:57 10° ESE
ATLAS CENTAUR R/B 3.9 04:31:44 14° NE 04:31:44 14° NE 04:32:17 10° NE
METEOR-M 4.4 04:29:52 10° NNE 04:34:34 65° NE 04:34:34 65° NE
Lacrosse 5 rocket 3.6 04:40:11 16° SE 04:40:11 16° SE 04:41:02 10° SE
Cosmos 372 Rocket 4.3 04:40:33 58° NNE 04:41:11 64° ENE 04:46:21 10° SSE
USA 307 4.2 04:44:43 35° NE 04:44:43 35° NE 04:47:14 10° NE
USA 215 4.3 04:37:52 10° NE 04:43:15 30° NNW 04:43:15 30° NNW
ADEOS 3.6 04:40:23 10° NNE 04:45:37 75° ESE 04:47:41 38° S
Haruka 4.4 04:45:09 31° S 04:46:02 33° S 04:56:02 10° ESE
USA 305 4.0 04:50:49 38° NE 04:50:49 38° NE 04:53:31 10° NE
Nadezhda 4 Rocket 4.0 04:43:59 10° N 04:50:07 75° E 04:56:14 10° SSE
USA 308 3.8 04:53:17 43° NE 04:53:17 43° NE 04:56:16 10° NE
Cosmos 1400 Rocket 3.6 04:53:19 49° NE 04:53:19 49° NE 04:56:40 10° NNE
SL-4 R/B 3.5 04:55:31 27° NE 04:55:31 27° NE 04:57:34 10° NE
Cosmos 2034 Rocket 3.9 04:48:42 10° S 04:55:04 90° E 05:01:28 10° N
Meteor 1-16 Rocket 4.3 04:50:09 10° S 04:56:03 81° E 05:02:00 10° NNE
Cosmos 1570 Rocket 4.3 04:57:36 50° NNW 04:57:36 50° NNW 05:01:40 10° NNE
Cosmos 1943 Rocket 4.0 04:51:43 10° N 04:56:35 28° NE 05:01:25 10° ESE
CZ-4B R/B 3.6 04:56:09 10° SSE 04:57:26 21° SSE 04:57:26 21° SSE
USA 306 3.6 05:02:36 45° NNE 05:02:36 45° NNE 05:05:46 10° NE
NOSS 3-2 (A) 3.3 05:00:28 35° SSW 05:02:58 82° ESE 05:09:17 10° NE
Cosmos 1814 Rocket 4.1 05:03:50 56° NNW 05:03:50 56° NNW 05:08:13 10° NNE
SJ-12 3.9 04:59:38 10° NNE 05:03:48 79° E 05:04:12 70° SSE
Cosmos 2369 Rocket 4.4 05:02:36 10° N 05:06:46 21° NE 05:10:55 10° E
COSMO-SKYMED 1 2.6 05:06:03 10° SSE 05:10:23 80° ENE 05:12:34 29° N
CZ-4B R/B 3.2 05:09:12 10° NNE 05:12:51 60° ESE 05:16:38 10° S
USA 267 3.8 05:09:55 10° S 05:15:45 34° SW 05:16:23 34° WSW
SL-16 R/B 2.2 05:10:31 10° SSW 05:16:10 82° ESE 05:21:51 10° NNE
NOSS 3-2 (C) 3.8 05:11:14 10° SSW 05:16:39 61° ESE 05:22:47 10° NE
Cosmos 2278 Rocket 3.1 05:18:36 30° SW 05:18:36 30° SW 05:22:12 10° SSW
CZ-2C R/B 2.5 05:19:17 30° SSW 05:19:42 31° S 05:23:24 10° SE
ERBS 4.0 05:18:11 20° S 05:19:46 30° SE 05:22:42 10° ENE
Cosmos 972 Rocket 4.3 05:14:15 10° SSW 05:20:39 86° ESE 05:26:22 10° NNE
ERS-2 2.3 05:19:31 10° SSE 05:23:08 70° ENE 05:25:10 25° N
CENTAUR R/B 2.6 05:18:08 10° SSW 05:23:50 74° ESE 05:30:37 10° NE
Cosmos 2208 Rocket 4.3 05:23:25 42° W 05:24:26 47° WNW 05:29:39 10° N
Cosmos 2237 Rocket 3.0 05:24:59 32° NW 05:24:59 32° NW 05:29:32 10° N
ATLAS 5 CENTAUR R/B 2.0 05:25:47 46° SSW 05:25:47 46° SSW 05:30:55 10° SSE
Cosmos 2026 Rocket 4.4 05:19:30 10° N 05:25:53 67° E 05:32:12 10° SSE
H-2A R/B 2.8 05:26:06 10° NNE 05:29:51 74° ESE 05:33:36 10° S
FALCON 9 DEB 2.8 05:30:00 78° S 05:30:06 80° SE 05:33:15 10° NE
Meteor PRIRODA 3.4 05:30:53 10° N 05:34:30 76° WNW 05:38:07 10° SSW
FALCON 9 DEB 2.7 05:38:25 69° WNW 05:38:36 72° NW 05:41:42 10° NE
Cosmos 1626 Rocket 3.9 05:37:41 35° WNW 05:38:40 40° W 05:42:49 10° SSW
Cosmos 1703 3.6 05:39:02 41° W 05:39:02 41° W 05:42:44 10° SSW
Lacrosse 4 Rocket 2.3 05:40:48 30° NW 05:40:48 30° NW 05:44:26 10° N
Cosmos 1300 2.6 05:40:19 10° S 05:44:06 87° E 05:47:56 10° N
Meteor 1-11 4.1 05:41:01 10° NNW 05:46:37 83° W 05:52:13 10° S
SAR-Lupe-4 3.4 05:43:09 10° S 05:46:43 78° WSW 05:50:19 10° NNW
Cosmos 1315 Rocket 2.7 05:44:45 10° S 05:48:39 85° E 05:52:35 10° N
[s.n.47389] 3.3 05:48:24 24° SSW 05:49:38 47° SE 05:52:09 10° ENE
[s.n.47399] 3.3 05:48:25 24° SSW 05:49:40 47° SE 05:52:11 10° ENE
[s.n.47393] 3.3 05:48:27 24° SSW 05:49:42 47° SE 05:52:13 10° ENE
[s.n.47353] 3.3 05:48:32 24° SSW 05:49:47 48° SE 05:52:17 10° ENE
[s.n.47355] 3.3 05:48:34 24° SSW 05:49:50 48° SE 05:52:21 10° ENE
[s.n.47365] 3.3 05:48:37 23° SSW 05:49:53 48° SE 05:52:24 10° ENE
[s.n.47383] 3.2 05:48:42 24° SSW 05:49:58 48° SE 05:52:29 10° ENE
[s.n.47400] 3.3 05:48:40 23° SSW 05:49:59 48° SE 05:52:33 10° ENE
[s.n.47378] 3.2 05:48:48 24° SSW 05:50:04 48° SE 05:52:35 10° ENE
[s.n.47395] 3.2 05:48:51 24° SSW 05:50:06 48° SE 05:52:37 10° ENE
[s.n.47379] 3.2 05:48:57 24° SSW 05:50:13 48° SE 05:52:44 10° ENE
[s.n.47370] 3.2 05:48:57 24° SSW 05:50:13 48° SE 05:52:44 10° ENE
[s.n.47351] 3.2 05:48:57 23° SSW 05:50:16 49° SE 05:52:50 10° ENE
[s.n.47394] 3.2 05:49:03 23° SSW 05:50:20 48° SE 05:52:51 10° ENE
[s.n.47354] 3.2 05:49:07 24° SSW 05:50:23 49° SE 05:52:54 10° ENE
[s.n.47360] 3.2 05:49:09 24° SSW 05:50:25 49° SE 05:52:56 10° ENE
[s.n.47369] 3.2 05:49:14 23° SSW 05:50:30 49° SE 05:53:01 10° ENE
[s.n.47406] 3.2 05:49:16 23° SSW 05:50:33 49° SE 05:53:04 10° ENE
[s.n.47384] 3.2 05:49:19 23° SSW 05:50:35 49° SE 05:53:07 10° ENE
[s.n.47356] 3.2 05:49:21 23° SSW 05:50:39 49° SE 05:53:10 10° ENE
[s.n.47407] 3.2 05:49:24 23° SSW 05:50:42 49° SE 05:53:14 10° ENE
[s.n.47385] 3.2 05:49:22 23° SSW 05:50:44 50° SE 05:53:18 10° ENE
[s.n.47358] 3.2 05:49:31 23° SSW 05:50:49 49° SE 05:53:21 10° ENE
[s.n.47398] 3.2 05:49:33 23° SSW 05:50:51 49° SE 05:53:23 10° ENE
[s.n.47361] 3.2 05:49:37 23° SSW 05:50:55 49° SE 05:53:27 10° ENE
[s.n.47392] 3.2 05:49:39 23° SSW 05:50:57 49° SE 05:53:29 10° ENE
[s.n.47382] 3.2 05:49:43 23° SSW 05:51:01 50° SE 05:53:33 10° ENE
[s.n.47359] 3.2 05:49:43 23° SSW 05:51:03 50° SE 05:53:37 10° ENE
[s.n.47401] 3.2 05:49:50 23° SSW 05:51:09 50° SE 05:53:40 10° ENE
[s.n.47380] 3.2 05:49:47 22° SSW 05:51:10 50° SE 05:53:44 10° ENE
[s.n.47386] 3.2 05:49:57 23° SSW 05:51:15 50° SE 05:53:47 10° ENE
[s.n.47408] 3.2 05:49:55 22° SSW 05:51:18 51° SE 05:53:52 10° ENE
[s.n.47396] 3.2 05:50:02 23° SSW 05:51:21 50° SE 05:53:53 10° ENE
[s.n.47391] 3.2 05:50:04 23° SSW 05:51:23 50° SE 05:53:56 10° ENE
[s.n.47402] 3.2 05:50:08 23° SSW 05:51:27 50° SE 05:53:59 10° ENE
[s.n.47404] 3.2 05:50:11 23° SSW 05:51:30 50° SE 05:54:02 10° ENE
[s.n.47403] 3.2 05:50:14 23° SSW 05:51:34 50° SE 05:54:05 10° ENE
[s.n.47381] 3.1 05:50:17 23° SSW 05:51:37 51° SE 05:54:09 10° ENE
[s.n.47372] 3.1 05:50:21 23° SSW 05:51:41 51° SE 05:54:13 10° ENE
[s.n.47405] 3.1 05:50:23 23° SSW 05:51:43 51° SE 05:54:15 10° ENE
[s.n.47368] 3.1 05:50:28 23° SSW 05:51:48 51° SE 05:54:20 10° ENE
[s.n.47350] 3.1 05:50:30 23° SSW 05:51:51 51° SE 05:54:23 10° ENE
[s.n.47349] 3.2 05:50:28 22° SSW 05:51:52 52° SE 05:54:27 10° ENE
[s.n.47367] 3.1 05:50:34 23° SSW 05:51:55 51° SE 05:54:29 10° ENE
[s.n.47373] 3.1 05:50:34 22° SSW 05:51:59 52° SE 05:54:33 10° ENE
[s.n.47377] 3.1 05:50:37 22° SSW 05:52:02 52° SE 05:54:37 10° ENE
[s.n.47371] 3.1 05:50:40 22° SSW 05:52:04 52° SE 05:54:40 10° ENE
[s.n.47362] 3.1 05:50:43 22° SSW 05:52:07 52° SE 05:54:42 10° ENE
[s.n.47363] 3.1 05:50:47 22° SSW 05:52:11 52° SE 05:54:46 10° ENE
deb Chang Zheng 4 3.9 05:48:16 10° N 05:52:15 40° WNW 05:56:11 10° SW
[s.n.47374] 3.1 05:50:53 23° SSW 05:52:15 52° SE 05:54:49 10° ENE
[s.n.47357] 3.1 05:50:57 23° SSW 05:52:19 52° SE 05:54:52 10° ENE
[s.n.47390] 3.1 05:51:01 22° SSW 05:52:23 52° SE 05:54:55 10° ENE
[s.n.47387] 3.1 05:51:03 22° SSW 05:52:25 52° SE 05:54:58 10° ENE
[s.n.47375] 3.1 05:51:04 22° SSW 05:52:26 52° SE 05:54:58 10° ENE
[s.n.47376] 3.1 05:51:02 22° SSW 05:52:27 53° SE 05:55:03 10° ENE
[s.n.47366] 3.1 05:51:13 22° SSW 05:52:35 52° SE 05:55:09 10° ENE
[s.n.47352] 3.1 05:51:15 22° SSW 05:52:39 53° SE 05:55:13 10° ENE
[s.n.47364] 3.1 05:51:18 22° SSW 05:52:42 53° SE 05:55:17 10° ENE
[s.n.47388] 3.1 05:51:21 22° SSW 05:52:45 53° SE 05:55:19 10° ENE
[s.n.47397] 3.1 05:51:28 22° SSW 05:52:51 53° SE 05:55:23 10° ENE
Cosmos 2195 Rocket 4.4 05:46:59 10° NNW 05:53:10 65° W 05:59:14 10° S
MOS 1 Rocket 3.5 05:51:17 10° S 05:56:00 47° W 06:00:28 10° NNW
Cosmos 2297 3.7 05:50:24 10° NNW 05:56:06 66° WSW 06:01:46 10° S
SKYMED 2 4.4 05:54:44 10° SSW 05:58:33 30° W 06:01:10 17° NW
USA 238 DEB 3.7 05:52:19 10° SW 05:58:44 55° NW 06:05:29 10° NNE
USA 238 3.7 05:52:25 10° SW 05:58:50 56° NW 06:05:35 10° NNE
Cosmos 836 Rocket 4.4 05:53:37 10° SSW 05:58:51 70° WNW 06:04:05 10° NNE
Cosmos 1346 Rocket 2.7 05:55:39 10° NNW 05:59:36 62° W 06:03:32 10° S
Cosmos 1428 Rocket 4.4 05:56:17 10° NNW 06:02:29 66° W 06:08:35 10° S
SAR-Lupe-1 4.3 05:59:40 10° S 06:03:07 47° W 06:06:36 10° NNW
Cosmos 1758 Rocket 3.7 06:00:09 10° NNW 06:04:31 54° W 06:08:50 10° S
Cosmos 1689 Rocket 2.4 06:02:43 10° S 06:05:27 40° W 06:07:24 17° NW
ATLAS CENTAUR R/B 2.8 06:07:56 15° NW 06:07:56 15° NW 06:10:07 10° N
BREEZE M DEB (TANK) 1.8 06:11:50 21° W 06:13:09 52° NNW 06:17:07 10° ENE
Atlas Centaur 2 4.3 06:09:43 10° WSW 06:15:49 27° SSW 06:22:32 10° SE
Cosmos 1340 4.5 06:16:49 14° W 06:16:49 14° W 06:18:13 10° WSW
SL-19 R/B 4.0 06:12:37 10° NNE 06:16:12 78° ESE 06:19:21 10° SSW
Cosmos 1726 Rocket 3.4 06:12:08 10° SSW 06:16:25 70° W 06:20:44 10° N
Cosmos 2084 Rocket 4.4 06:13:52 16° WNW 06:16:50 33° WSW 06:20:54 10° S
Cosmos 2058 Rocket 3.3 06:14:03 10° S 06:18:26 74° E 06:22:52 10° NNE
MOS 1-B 4.4 06:13:33 10° NNE 06:19:21 87° ESE 06:25:08 10° SSW
Cosmos 1603 4.1 06:13:48 10° SSW 06:19:21 70° ESE 06:24:59 10° NNE
Cosmos 1892 3.2 06:16:14 10° N 06:20:04 63° E 06:23:53 10° SSE
YAOGAN 6 3.1 06:16:37 10° N 06:20:04 37° WNW 06:23:29 10° SW
Spot 2 3.8 06:16:51 10° N 06:20:54 79° WNW 06:25:02 10° SSW
FALCON 9 DEB 3.9 06:19:09 16° W 06:20:59 29° NNW 06:23:45 10° NE
GEOS 3 Rocket 3.7 06:15:51 10° SE 06:21:13 84° SW 06:26:39 10° NW
USA 307 4.3 06:20:53 14° WNW 06:23:28 23° NNW 06:26:52 10° NNE
Cosmos 2279 Rocket 4.0 06:22:13 10° SSW 06:28:21 61° W 06:34:35 10° N
FALCON 9 DEB 4.0 06:27:21 12° W 06:29:45 28° NNW 06:32:33 10° NE
USA 305 4.4 06:26:57 12° WNW 06:29:49 21° NNW 06:33:06 10° NNE
CZ-4B DEB 4.2 06:24:50 10° N 06:30:21 64° WNW 06:35:49 10° SSW
In-Cosmos 22 Rocket 4.1 06:25:06 10° NNW 06:30:34 83° W 06:35:53 10° S
PSLV R/B 4.3 06:27:10 10° N 06:30:55 38° WNW 06:34:42 10° SW
Cosmos 2292 Rocket 2.8 06:29:04 10° NNW 06:32:08 68° W 06:35:48 10° S
USA 308 4.4 06:29:28 11° WNW 06:32:33 21° NNW 06:35:53 10° NNE
Cosmos 1408 3.0 06:30:12 10° N 06:33:47 64° E 06:37:22 10° SSE
SL-4 R/B 3.5 06:31:05 10° WNW 06:34:01 21° N 06:37:11 10° NE
Cosmos 2098 Rocket 4.0 06:31:23 10° NNW 06:36:11 33° W 06:40:04 10° SSW
Okean O Rocket 1.7 06:31:55 10° NNE 06:36:17 84° ESE 06:40:37 10° SSW
Cosmos 1825 Rocket 4.3 06:33:01 10° NNW 06:37:01 33° W 06:41:01 10° SSW
SMAP 3.0 06:33:45 10° N 06:38:23 67° WNW 06:42:59 10° SSW
Cosmos 2263 4.4 06:34:02 10° NNW 06:39:44 77° ENE 06:45:27 10° SSE
Cosmos 1943 Rocket 2.6 06:35:07 10° NW 06:40:28 44° WSW 06:45:49 10° S
CZ-2C R/B 2.6 06:35:21 10° S 06:40:33 66° W 06:45:54 10° NNW
H-2A R/B 2.7 06:38:07 10° N 06:42:34 58° WNW 06:46:57 10° SSW
Cosmos 1939 Rocket 3.2 06:41:20 10° NNE 06:45:13 70° E 06:49:03 10° S
Cosmos 773 Rocket 4.0 06:42:09 10° SSW 06:47:24 79° WNW 06:52:38 10° NNE
